Location: Treviso
(45.6669°N, 12.2430°E)
Time: 00:58:30
(UTC+02:00)

ISS - Pass Details

Date: 10 July 2025
Orbit: 413 x 417 km, 51.6° (Epoch: 13 July)

Event Time Altitude Azimuth Distance (km) Brightness Sun altitude
Rises 04:25:58 0° 291° (WNW) 2,359 -0.2 -9.7°
Reaches altitude 10° 04:28:19 10° 277° (W) 1,493 -1.3 -9.4°
Maximum altitude 04:31:02 23° 222° (SW) 931 -2.6 -9.0°
Drops below altitude 10° 04:33:45 10° 168° (SSE) 1,486 -1.3 -8.7°
Sets 04:36:06 0° 153° (SSE) 2,345 -0.1 -8.4°
